WMT338 LRCL-LEPA

Flight info

Callsign WMT338
Flight time 2h 44m
Altitude 36000
Route ELROM DCT LAKIK/N0453F350 DCT PY402/N0451F370 DCT AJO DCT NEGAT DCT SOVAG DCT NESUL DCT ATGUS DCT RIXOT
Aircraft A320/M-SDE1E2E3FGIRWXYZ/LB1

Departure

Time 2026-05-05 14:30
Airport Avram Iancu Cluj International Airport (LRCL)

Arrival

Time 2026-05-05 17:14
Airport Palma de Mallorca Airport (LEPA)
Time Latitude Longitude Altitude Speed Heading
2026-05-05 14:16 46.78493 23.69282 1034 ft 0 kts 250°
2026-05-05 14:23 46.78494 23.69287 1033 ft 2 kts 250°
2026-05-05 14:23 46.78500 23.69309 1033 ft 3 kts 255°
2026-05-05 14:24 46.78502 23.69336 1033 ft 3 kts 288°
2026-05-05 14:24 46.78493 23.69360 1033 ft 3 kts 323°
2026-05-05 14:24 46.78476 23.69374 1033 ft 2 kts 340°
2026-05-05 14:24 46.78469 23.69377 1033 ft 0 kts 341°
2026-05-05 14:25 46.78469 23.69378 1033 ft 0 kts 341°
2026-05-05 14:26 46.78475 23.69375 1033 ft 4 kts 341°
2026-05-05 14:27 46.78528 23.69348 1033 ft 12 kts 341°
2026-05-05 14:27 46.78610 23.69308 1033 ft 13 kts 341°
2026-05-05 14:27 46.78701 23.69263 1033 ft 15 kts 341°
2026-05-05 14:27 46.78801 23.69214 1033 ft 13 kts 341°
2026-05-05 14:28 46.78869 23.69181 1034 ft 10 kts 342°
2026-05-05 14:28 46.78924 23.69224 1034 ft 11 kts 73°
2026-05-05 14:28 46.78946 23.69336 1035 ft 12 kts 74°
2026-05-05 14:28 46.78975 23.69463 1036 ft 14 kts 70°
2026-05-05 14:29 46.78998 23.69580 1035 ft 8 kts 10°
2026-05-05 14:29 46.78997 23.69544 1036 ft 0 kts 247°
2026-05-05 14:29 46.78906 23.69153 1034 ft 85 kts 251°
2026-05-05 14:30 46.78641 23.67982 1040 ft 153 kts 249°
2026-05-05 14:30 46.78297 23.66398 1596 ft 171 kts 249°
2026-05-05 14:30 46.77946 23.64680 2362 ft 181 kts 251°
2026-05-05 14:30 46.77599 23.62883 3209 ft 184 kts 252°
2026-05-05 14:31 46.77286 23.61136 3969 ft 173 kts 253°
2026-05-05 14:31 46.76986 23.59474 4609 ft 170 kts 249°
2026-05-05 14:31 46.76563 23.57760 4894 ft 190 kts 247°
2026-05-05 14:31 46.76065 23.55852 5123 ft 213 kts 248°
2026-05-05 14:32 46.75609 23.53686 5410 ft 236 kts 262°
2026-05-05 14:32 46.75467 23.51181 5730 ft 260 kts 265°
2026-05-05 14:32 46.75375 23.48484 6429 ft 270 kts 267°
2026-05-05 14:32 46.75304 23.45726 7237 ft 274 kts 267°
2026-05-05 14:33 46.75238 23.42926 7745 ft 277 kts 267°
2026-05-05 14:33 46.75174 23.40114 8245 ft 279 kts 267°
2026-05-05 14:33 46.75110 23.37273 8655 ft 281 kts 266°
2026-05-05 14:33 46.75042 23.34419 8977 ft 283 kts 267°
2026-05-05 14:34 46.74968 23.31537 9400 ft 286 kts 266°
2026-05-05 14:34 46.74891 23.28632 10165 ft 289 kts 266°
2026-05-05 14:34 46.74809 23.25593 10435 ft 311 kts 267°
2026-05-05 14:34 46.74719 23.22324 10606 ft 334 kts 266°
2026-05-05 14:35 46.74621 23.18828 10810 ft 354 kts 266°
2026-05-05 14:35 46.74520 23.15195 11346 ft 362 kts 266°
2026-05-05 14:35 46.74419 23.11513 11947 ft 367 kts 267°
2026-05-05 14:35 46.74316 23.07765 12558 ft 372 kts 267°
2026-05-05 14:36 46.74242 23.05255 12962 ft 375 kts 265°
2026-05-05 14:36 46.73840 23.01486 13553 ft 379 kts 255°
2026-05-05 14:36 46.73085 22.97785 14106 ft 383 kts 252°
2026-05-05 14:36 46.72308 22.94051 14677 ft 386 kts 252°
2026-05-05 14:37 46.71266 22.89012 15433 ft 389 kts 253°
2026-05-05 14:37 46.70750 22.86506 15798 ft 391 kts 253°
2026-05-05 14:37 46.69966 22.82704 16377 ft 393 kts 253°
2026-05-05 14:37 46.69173 22.78879 16922 ft 396 kts 253°
2026-05-05 14:38 46.68372 22.75028 17493 ft 399 kts 253°
2026-05-05 14:38 46.67566 22.71145 18049 ft 402 kts 252°
2026-05-05 14:38 46.66754 22.67240 18569 ft 404 kts 253°
2026-05-05 14:38 46.65934 22.63313 19070 ft 407 kts 253°
2026-05-05 14:39 46.65108 22.59363 19572 ft 409 kts 253°
2026-05-05 14:39 46.64276 22.55391 20077 ft 412 kts 253°
2026-05-05 14:39 46.63437 22.51392 20579 ft 414 kts 253°
2026-05-05 14:39 46.62592 22.47380 21042 ft 416 kts 253°
2026-05-05 14:40 46.61739 22.43341 21503 ft 418 kts 253°
2026-05-05 14:40 46.60883 22.39289 21960 ft 420 kts 253°
2026-05-05 14:40 46.60021 22.35212 22409 ft 422 kts 253°
2026-05-05 14:40 46.59154 22.31122 22835 ft 425 kts 253°
2026-05-05 14:41 46.58280 22.27013 23266 ft 427 kts 253°
2026-05-05 14:41 46.57398 22.22880 23667 ft 429 kts 253°
2026-05-05 14:41 46.56512 22.18725 24003 ft 431 kts 253°
2026-05-05 14:41 46.55623 22.14563 24342 ft 433 kts 253°
2026-05-05 14:42 46.54726 22.10369 24664 ft 435 kts 253°
2026-05-05 14:42 46.53827 22.06162 25006 ft 437 kts 253°
2026-05-05 14:42 46.52930 22.01993 25351 ft 439 kts 253°
2026-05-05 14:42 46.52013 21.97754 25694 ft 441 kts 253°
2026-05-05 14:43 46.51088 21.93490 26022 ft 444 kts 253°
2026-05-05 14:43 46.50158 21.89210 26355 ft 446 kts 253°
2026-05-05 14:43 46.49225 21.84912 26693 ft 447 kts 253°
2026-05-05 14:43 46.48290 21.80607 27177 ft 446 kts 253°
2026-05-05 14:44 46.47358 21.76326 27650 ft 444 kts 253°
2026-05-05 14:44 46.46426 21.72052 28121 ft 443 kts 253°
2026-05-05 14:44 46.45493 21.67793 28609 ft 442 kts 253°
2026-05-05 14:44 46.44560 21.63546 29093 ft 441 kts 253°
2026-05-05 14:45 46.43632 21.59320 29583 ft 439 kts 253°
2026-05-05 14:45 46.42706 21.55105 30072 ft 438 kts 253°
2026-05-05 14:45 46.41780 21.50906 30492 ft 437 kts 253°
2026-05-05 14:45 46.40856 21.46716 30923 ft 435 kts 253°
2026-05-05 14:46 46.39932 21.42549 31356 ft 434 kts 253°
2026-05-05 14:46 46.39009 21.38398 31793 ft 432 kts 253°
2026-05-05 14:46 46.38087 21.34261 32232 ft 431 kts 253°
2026-05-05 14:46 46.37166 21.30133 32678 ft 430 kts 253°
2026-05-05 14:47 46.36249 21.26024 33102 ft 428 kts 253°
2026-05-05 14:47 46.35333 21.21931 33545 ft 427 kts 253°
2026-05-05 14:47 46.34419 21.17850 33961 ft 426 kts 253°
2026-05-05 14:47 46.33503 21.13775 34322 ft 425 kts 253°
2026-05-05 14:48 46.32591 21.09715 34653 ft 424 kts 253°
2026-05-05 14:48 46.31678 21.05661 34966 ft 424 kts 253°
2026-05-05 14:48 46.30764 21.01612 35274 ft 423 kts 253°
2026-05-05 14:48 46.29848 20.97570 35572 ft 423 kts 253°
2026-05-05 14:49 46.28933 20.93534 35857 ft 423 kts 253°
2026-05-05 14:49 46.28014 20.89481 35943 ft 426 kts 253°
2026-05-05 14:49 46.26137 20.81241 35946 ft 435 kts 253°
2026-05-05 14:50 46.24235 20.72915 35942 ft 437 kts 253°
2026-05-05 14:50 46.22343 20.64645 35939 ft 436 kts 252°
2026-05-05 14:51 46.20425 20.56320 35940 ft 436 kts 252°
2026-05-05 14:51 46.18502 20.48005 35605 ft 438 kts 252°
2026-05-05 14:52 46.17532 20.43827 35096 ft 436 kts 252°
2026-05-05 14:52 46.16567 20.39682 34604 ft 436 kts 252°
2026-05-05 14:52 46.15603 20.35549 34309 ft 435 kts 252°
2026-05-05 14:52 46.14640 20.31415 34070 ft 435 kts 252°
2026-05-05 14:53 46.13689 20.27325 33893 ft 435 kts 252°
2026-05-05 14:53 46.12726 20.23189 33943 ft 435 kts 252°
2026-05-05 14:53 46.10783 20.14915 33920 ft 435 kts 252°
2026-05-05 14:54 46.08835 20.06666 33933 ft 434 kts 252°
2026-05-05 14:54 46.06885 19.98424 33930 ft 434 kts 252°
2026-05-05 14:55 46.04926 19.90201 33968 ft 435 kts 252°
2026-05-05 14:55 46.03944 19.86080 34329 ft 434 kts 252°
2026-05-05 14:55 46.02967 19.81977 34701 ft 433 kts 252°
2026-05-05 14:56 46.01992 19.77880 35034 ft 433 kts 252°
2026-05-05 14:56 46.01014 19.73789 35364 ft 432 kts 252°
2026-05-05 14:56 46.00043 19.69745 35679 ft 432 kts 252°
2026-05-05 14:56 45.99056 19.65658 35889 ft 433 kts 252°
2026-05-05 14:57 45.97084 19.57484 35929 ft 432 kts 252°
2026-05-05 14:57 45.95115 19.49336 35931 ft 431 kts 252°
2026-05-05 14:58 45.93134 19.41190 35934 ft 431 kts 252°
2026-05-05 14:58 45.91163 19.33080 35930 ft 430 kts 252°
2026-05-05 14:59 45.89185 19.24968 35930 ft 430 kts 252°
2026-05-05 14:59 45.87215 19.16938 35936 ft 430 kts 252°
2026-05-05 15:00 45.85545 19.10170 35943 ft 429 kts 252°
2026-05-05 15:00 45.83227 19.00799 35939 ft 428 kts 252°
2026-05-05 15:01 45.81215 18.92686 35925 ft 434 kts 252°
2026-05-05 15:01 45.79187 18.84521 35926 ft 435 kts 251°
2026-05-05 15:02 45.77152 18.76375 35933 ft 434 kts 251°
2026-05-05 15:02 45.75114 18.68245 35931 ft 433 kts 251°
2026-05-05 15:03 45.73080 18.60137 35927 ft 433 kts 251°
2026-05-05 15:03 45.71035 18.52028 35925 ft 433 kts 251°
2026-05-05 15:04 45.68983 18.43937 35933 ft 433 kts 251°
2026-05-05 15:04 45.66919 18.35847 35941 ft 433 kts 251°
2026-05-05 15:05 45.63831 18.23768 35936 ft 433 kts 251°
2026-05-05 15:06 45.61755 18.15680 35931 ft 434 kts 251°
2026-05-05 15:06 45.59492 18.07693 35934 ft 435 kts 243°
2026-05-05 15:07 45.56677 18.00036 35933 ft 435 kts 243°
2026-05-05 15:07 45.53851 17.92385 35938 ft 436 kts 243°
2026-05-05 15:08 45.51020 17.84742 35940 ft 436 kts 243°
2026-05-05 15:08 45.48179 17.77080 35945 ft 437 kts 243°
2026-05-05 15:09 45.45353 17.69478 35949 ft 437 kts 243°
2026-05-05 15:09 45.42500 17.61815 35959 ft 437 kts 243°
2026-05-05 15:10 45.39645 17.54166 35962 ft 437 kts 243°
2026-05-05 15:10 45.36774 17.46522 35968 ft 437 kts 243°
2026-05-05 15:11 45.33906 17.38907 36016 ft 437 kts 243°
2026-05-05 15:11 45.32488 17.35146 36692 ft 427 kts 243°
2026-05-05 15:11 45.31090 17.31440 37206 ft 423 kts 243°
2026-05-05 15:11 45.29701 17.27766 37593 ft 421 kts 243°
2026-05-05 15:12 45.28335 17.24155 37887 ft 420 kts 243°
2026-05-05 15:12 45.25553 17.16804 37970 ft 419 kts 243°
2026-05-05 15:13 45.22805 17.09576 37968 ft 418 kts 243°
2026-05-05 15:13 45.20042 17.02323 37969 ft 417 kts 243°
2026-05-05 15:14 45.17278 16.95097 37977 ft 417 kts 243°
2026-05-05 15:14 45.14520 16.87883 37984 ft 416 kts 243°
2026-05-05 15:15 45.11755 16.80674 38001 ft 416 kts 243°
2026-05-05 15:15 45.08975 16.73463 38005 ft 417 kts 243°
2026-05-05 15:16 45.06196 16.66275 38008 ft 416 kts 243°
2026-05-05 15:16 45.03412 16.59080 38012 ft 416 kts 243°
2026-05-05 15:17 45.00640 16.51929 38012 ft 416 kts 243°
2026-05-05 15:17 44.97852 16.44756 38015 ft 416 kts 243°
2026-05-05 15:18 44.95035 16.37548 38016 ft 416 kts 243°
2026-05-05 15:18 44.92256 16.30445 38021 ft 416 kts 243°
2026-05-05 15:19 44.89455 16.23293 38024 ft 416 kts 243°
2026-05-05 15:19 44.86643 16.16138 38026 ft 416 kts 243°
2026-05-05 15:20 44.83826 16.09000 38030 ft 416 kts 243°
2026-05-05 15:20 44.81483 16.03079 38033 ft 416 kts 243°
2026-05-05 15:21 44.78206 15.94804 38038 ft 416 kts 243°
2026-05-05 15:21 44.75849 15.88854 38041 ft 415 kts 243°
2026-05-05 15:22 44.73029 15.81756 38043 ft 415 kts 243°
2026-05-05 15:22 44.70220 15.74718 38052 ft 415 kts 243°
2026-05-05 15:23 44.67388 15.67644 38062 ft 415 kts 243°
2026-05-05 15:23 44.64557 15.60586 38067 ft 414 kts 243°
2026-05-05 15:24 44.61740 15.53592 38074 ft 414 kts 243°
2026-05-05 15:24 44.58911 15.46565 38081 ft 413 kts 243°
2026-05-05 15:25 44.56083 15.39543 38084 ft 413 kts 243°
2026-05-05 15:25 44.53244 15.32550 38084 ft 413 kts 243°
2026-05-05 15:26 44.50403 15.25565 38085 ft 412 kts 243°
2026-05-05 15:26 44.47565 15.18594 38088 ft 412 kts 243°
2026-05-05 15:27 44.44729 15.11629 38083 ft 412 kts 242°
2026-05-05 15:27 44.41885 15.04665 38079 ft 412 kts 242°
2026-05-05 15:28 44.39034 14.97722 38071 ft 412 kts 242°
2026-05-05 15:28 44.36195 14.90822 38068 ft 412 kts 242°
2026-05-05 15:29 44.33336 14.83874 38066 ft 412 kts 242°
2026-05-05 15:29 44.30471 14.76942 38046 ft 412 kts 242°
2026-05-05 15:30 44.27600 14.70013 38035 ft 413 kts 242°
2026-05-05 15:30 44.24721 14.63081 38031 ft 413 kts 242°
2026-05-05 15:31 44.21840 14.56159 38035 ft 413 kts 242°
2026-05-05 15:31 44.18954 14.49238 38037 ft 413 kts 242°
2026-05-05 15:32 44.16064 14.42325 38036 ft 413 kts 242°
2026-05-05 15:32 44.13176 14.35433 38039 ft 412 kts 242°
2026-05-05 15:33 44.10288 14.28553 38036 ft 411 kts 241°
2026-05-05 15:33 44.07399 14.21694 38033 ft 410 kts 241°
2026-05-05 15:34 44.04512 14.14858 38032 ft 410 kts 241°
2026-05-05 15:34 44.01626 14.08050 38029 ft 408 kts 241°
2026-05-05 15:35 43.98749 14.01253 38026 ft 407 kts 241°
2026-05-05 15:35 43.95878 13.94486 38020 ft 407 kts 241°
2026-05-05 15:36 43.93113 13.88004 38020 ft 406 kts 241°
2026-05-05 15:36 43.90189 13.81173 38014 ft 406 kts 241°
2026-05-05 15:37 43.87311 13.74438 38013 ft 406 kts 241°
2026-05-05 15:37 43.84447 13.67765 38013 ft 405 kts 241°
2026-05-05 15:38 43.81539 13.61020 38015 ft 405 kts 241°
2026-05-05 15:38 43.78651 13.54327 38017 ft 404 kts 241°
2026-05-05 15:39 43.75794 13.47695 38018 ft 404 kts 241°
2026-05-05 15:39 43.72908 13.41031 38019 ft 404 kts 241°
2026-05-05 15:40 43.70020 13.34384 38021 ft 403 kts 241°
2026-05-05 15:40 43.67128 13.27743 38022 ft 403 kts 241°
2026-05-05 15:41 43.64362 13.21027 38025 ft 401 kts 244°
2026-05-05 15:41 43.61767 13.14219 38022 ft 401 kts 245°
2026-05-05 15:42 43.59156 13.07409 38018 ft 400 kts 244°
2026-05-05 15:42 43.56516 13.00665 38012 ft 399 kts 244°
2026-05-05 15:43 43.53879 12.93997 38010 ft 398 kts 244°
2026-05-05 15:43 43.51209 12.87264 38010 ft 397 kts 244°
2026-05-05 15:44 43.48559 12.80586 38014 ft 397 kts 244°
2026-05-05 15:44 43.45996 12.74118 38020 ft 396 kts 244°
2026-05-05 15:45 43.43376 12.67523 38021 ft 395 kts 243°
2026-05-05 15:45 43.40733 12.60890 38034 ft 395 kts 244°
2026-05-05 15:46 43.38091 12.54291 38042 ft 394 kts 244°
2026-05-05 15:46 43.35441 12.47689 38045 ft 394 kts 244°
2026-05-05 15:47 43.32797 12.41103 38052 ft 394 kts 244°
2026-05-05 15:47 43.30144 12.34507 38054 ft 394 kts 244°
2026-05-05 15:48 43.27490 12.27928 38057 ft 394 kts 243°
2026-05-05 15:48 43.24845 12.21394 38057 ft 394 kts 243°
2026-05-05 15:49 43.22183 12.14832 38052 ft 393 kts 243°
2026-05-05 15:49 43.19521 12.08275 38047 ft 393 kts 243°
2026-05-05 15:50 43.16856 12.01733 38047 ft 393 kts 243°
2026-05-05 15:50 43.14187 11.95196 38047 ft 393 kts 243°
2026-05-05 15:51 43.11522 11.88679 38047 ft 392 kts 243°
2026-05-05 15:51 43.08850 11.82162 38040 ft 392 kts 243°
2026-05-05 15:52 43.06188 11.75695 38041 ft 392 kts 243°
2026-05-05 15:52 43.03516 11.69199 38038 ft 392 kts 243°
2026-05-05 15:53 43.00841 11.62715 38036 ft 391 kts 243°
2026-05-05 15:53 42.98161 11.56242 38041 ft 391 kts 243°
2026-05-05 15:54 42.95480 11.49781 38041 ft 390 kts 243°
2026-05-05 15:54 42.92804 11.43336 38042 ft 390 kts 243°
2026-05-05 15:55 42.90130 11.36910 38034 ft 389 kts 243°
2026-05-05 15:55 42.87449 11.30500 38032 ft 389 kts 243°
2026-05-05 15:56 42.84777 11.24113 38028 ft 387 kts 243°
2026-05-05 15:56 42.82108 11.17740 38025 ft 387 kts 243°
2026-05-05 15:57 42.79458 11.11428 38020 ft 386 kts 243°
2026-05-05 15:57 42.76792 11.05092 38024 ft 385 kts 243°
2026-05-05 15:58 42.74122 10.98767 38022 ft 385 kts 243°
2026-05-05 15:58 42.71439 10.92422 38032 ft 384 kts 243°
2026-05-05 15:59 42.68793 10.86174 38033 ft 383 kts 243°
2026-05-05 15:59 42.66133 10.79909 38018 ft 382 kts 242°
2026-05-05 16:00 42.63465 10.73646 38017 ft 382 kts 242°
2026-05-05 16:00 42.60799 10.67407 38010 ft 382 kts 242°
2026-05-05 16:01 42.58137 10.61175 38002 ft 381 kts 242°
2026-05-05 16:01 42.55495 10.54984 37998 ft 381 kts 242°
2026-05-05 16:02 42.52830 10.48777 38008 ft 381 kts 242°
2026-05-05 16:02 42.50158 10.42575 37995 ft 381 kts 242°
2026-05-05 16:03 42.47487 10.36375 37996 ft 381 kts 242°
2026-05-05 16:03 42.44796 10.30148 38001 ft 381 kts 242°
2026-05-05 16:04 42.42133 10.24005 37977 ft 380 kts 242°
2026-05-05 16:04 42.39463 10.17843 37980 ft 379 kts 242°
2026-05-05 16:05 42.36793 10.11695 37980 ft 379 kts 241°
2026-05-05 16:05 42.34118 10.05547 37981 ft 379 kts 241°
2026-05-05 16:06 42.31438 9.99409 37977 ft 379 kts 241°
2026-05-05 16:06 42.28752 9.93272 37981 ft 379 kts 241°
2026-05-05 16:07 42.26067 9.87147 37982 ft 379 kts 241°
2026-05-05 16:07 42.23825 9.82052 37992 ft 379 kts 241°
2026-05-05 16:08 42.21134 9.75933 37992 ft 379 kts 241°
2026-05-05 16:08 42.18445 9.69809 38002 ft 380 kts 241°
2026-05-05 16:09 42.15745 9.63689 37985 ft 379 kts 241°
2026-05-05 16:09 42.13039 9.57576 37997 ft 379 kts 241°
2026-05-05 16:10 42.10356 9.51538 37999 ft 377 kts 241°
2026-05-05 16:10 42.07666 9.45496 37996 ft 375 kts 241°
2026-05-05 16:11 42.04986 9.39480 38000 ft 374 kts 241°
2026-05-05 16:12 41.99624 9.27475 37998 ft 374 kts 241°
2026-05-05 16:13 41.92915 9.12539 37993 ft 373 kts 240°
2026-05-05 16:13 41.90229 9.06568 37993 ft 373 kts 240°
2026-05-05 16:14 41.84880 8.94701 37992 ft 372 kts 240°
2026-05-05 16:15 41.79495 8.82843 37984 ft 372 kts 240°
2026-05-05 16:16 41.74354 8.70842 37983 ft 371 kts 244°
2026-05-05 16:17 41.70866 8.61585 37979 ft 371 kts 244°
2026-05-05 16:18 41.67303 8.52382 37986 ft 371 kts 243°
2026-05-05 16:19 41.63700 8.43215 37973 ft 371 kts 243°
2026-05-05 16:19 41.60119 8.34098 37979 ft 371 kts 243°
2026-05-05 16:20 41.55324 8.21901 37966 ft 371 kts 243°
2026-05-05 16:22 41.49285 8.06664 37961 ft 372 kts 243°
2026-05-05 16:23 41.44431 7.94465 37965 ft 373 kts 243°
2026-05-05 16:23 41.40774 7.85316 37971 ft 373 kts 243°
2026-05-05 16:24 41.38344 7.79212 37970 ft 373 kts 243°
2026-05-05 16:25 41.34683 7.70054 37972 ft 373 kts 243°
2026-05-05 16:25 41.31025 7.60959 37971 ft 373 kts 242°
2026-05-05 16:26 41.26118 7.48805 37965 ft 373 kts 242°
2026-05-05 16:27 41.23661 7.42731 37972 ft 373 kts 242°
2026-05-05 16:27 41.21197 7.36665 37965 ft 373 kts 242°
2026-05-05 16:28 41.18735 7.30607 37965 ft 373 kts 242°
2026-05-05 16:28 41.16270 7.24540 37961 ft 373 kts 242°
2026-05-05 16:29 41.13803 7.18483 37961 ft 373 kts 242°
2026-05-05 16:29 41.11322 7.12436 37960 ft 373 kts 242°
2026-05-05 16:30 41.08838 7.06398 37963 ft 373 kts 242°
2026-05-05 16:30 41.06368 7.00400 37962 ft 373 kts 242°
2026-05-05 16:31 41.03886 6.94358 37960 ft 373 kts 242°
2026-05-05 16:31 41.01407 6.88333 37959 ft 373 kts 242°
2026-05-05 16:32 40.98921 6.82304 37955 ft 373 kts 242°
2026-05-05 16:32 40.96433 6.76286 37955 ft 373 kts 242°
2026-05-05 16:33 40.93936 6.70273 37953 ft 373 kts 242°
2026-05-05 16:33 40.91547 6.64195 37944 ft 373 kts 248°
2026-05-05 16:34 40.89878 6.57706 37946 ft 373 kts 250°
2026-05-05 16:34 40.88212 6.51214 37939 ft 373 kts 250°
2026-05-05 16:35 40.86555 6.44764 37940 ft 373 kts 250°
2026-05-05 16:35 40.84889 6.38268 37938 ft 373 kts 250°
2026-05-05 16:36 40.83215 6.31773 37939 ft 374 kts 250°
2026-05-05 16:36 40.81537 6.25274 37936 ft 374 kts 250°
2026-05-05 16:37 40.79852 6.18769 37942 ft 375 kts 250°
2026-05-05 16:37 40.78163 6.12263 37943 ft 375 kts 250°
2026-05-05 16:38 40.76469 6.05758 37941 ft 375 kts 250°
2026-05-05 16:38 40.74767 5.99262 37939 ft 375 kts 250°
2026-05-05 16:39 40.73061 5.92764 37934 ft 375 kts 250°
2026-05-05 16:39 40.71348 5.86257 37937 ft 375 kts 249°
2026-05-05 16:40 40.69638 5.79769 37938 ft 375 kts 250°
2026-05-05 16:40 40.67930 5.73280 37933 ft 375 kts 249°
2026-05-05 16:41 40.67069 5.70026 37635 ft 376 kts 249°
2026-05-05 16:41 40.66209 5.66783 37362 ft 375 kts 249°
2026-05-05 16:41 40.65347 5.63541 37092 ft 375 kts 249°
2026-05-05 16:41 40.64491 5.60331 36828 ft 376 kts 249°
2026-05-05 16:42 40.63614 5.57041 36555 ft 376 kts 249°
2026-05-05 16:42 40.62748 5.53789 36295 ft 377 kts 249°
2026-05-05 16:42 40.61880 5.50533 36037 ft 377 kts 249°
2026-05-05 16:42 40.61010 5.47275 35626 ft 378 kts 249°
2026-05-05 16:43 40.60136 5.44006 34976 ft 379 kts 249°
2026-05-05 16:43 40.59261 5.40733 34527 ft 376 kts 248°
2026-05-05 16:43 40.58405 5.37531 34397 ft 365 kts 248°
2026-05-05 16:43 40.57569 5.34407 34096 ft 360 kts 248°
2026-05-05 16:44 40.56737 5.31311 33584 ft 358 kts 248°
2026-05-05 16:44 40.55905 5.28224 32960 ft 359 kts 248°
2026-05-05 16:44 40.55069 5.25124 32307 ft 360 kts 248°
2026-05-05 16:44 40.54231 5.22019 31652 ft 361 kts 248°
2026-05-05 16:45 40.53392 5.18914 31148 ft 359 kts 247°
2026-05-05 16:45 40.52552 5.15817 30475 ft 361 kts 247°
2026-05-05 16:45 40.51710 5.12715 29932 ft 360 kts 247°
2026-05-05 16:45 40.50872 5.09630 29353 ft 357 kts 247°
2026-05-05 16:46 40.50038 5.06561 28796 ft 355 kts 248°
2026-05-05 16:46 40.49215 5.03521 28258 ft 352 kts 248°
2026-05-05 16:46 40.48399 5.00506 27740 ft 349 kts 248°
2026-05-05 16:46 40.47588 4.97515 27230 ft 346 kts 248°
2026-05-05 16:47 40.46778 4.94544 26746 ft 344 kts 248°
2026-05-05 16:47 40.45971 4.91595 26266 ft 342 kts 248°
2026-05-05 16:47 40.45180 4.88709 25802 ft 339 kts 248°
2026-05-05 16:47 40.44373 4.85766 25353 ft 337 kts 249°
2026-05-05 16:48 40.43580 4.82881 24978 ft 334 kts 249°
2026-05-05 16:48 40.42789 4.80009 24888 ft 335 kts 249°
2026-05-05 16:48 40.41996 4.77127 24900 ft 337 kts 249°
2026-05-05 16:48 40.41200 4.74237 24895 ft 337 kts 249°
2026-05-05 16:49 40.40425 4.71419 24894 ft 325 kts 249°
2026-05-05 16:49 40.39666 4.68652 24898 ft 313 kts 248°
2026-05-05 16:49 40.38765 4.66115 24900 ft 310 kts 239°
2026-05-05 16:49 40.37525 4.63767 24896 ft 309 kts 234°
2026-05-05 16:50 40.36258 4.61492 24896 ft 309 kts 235°
2026-05-05 16:50 40.35010 4.59242 24896 ft 309 kts 235°
2026-05-05 16:50 40.33750 4.56965 24895 ft 309 kts 235°
2026-05-05 16:50 40.32492 4.54690 24895 ft 308 kts 235°
2026-05-05 16:51 40.31234 4.52415 24896 ft 308 kts 235°
2026-05-05 16:51 40.29958 4.50109 24894 ft 308 kts 235°
2026-05-05 16:51 40.28701 4.47839 24896 ft 308 kts 235°
2026-05-05 16:51 40.27867 4.46338 24893 ft 308 kts 235°
2026-05-05 16:52 40.26606 4.44076 24894 ft 308 kts 234°
2026-05-05 16:52 40.25349 4.41826 24626 ft 304 kts 235°
2026-05-05 16:52 40.23704 4.38874 24086 ft 302 kts 235°
2026-05-05 16:52 40.22871 4.37376 23829 ft 301 kts 235°
2026-05-05 16:53 40.21643 4.35169 23433 ft 299 kts 235°
2026-05-05 16:53 40.20420 4.32973 22978 ft 298 kts 235°
2026-05-05 16:53 40.19198 4.30782 22511 ft 297 kts 235°
2026-05-05 16:53 40.17983 4.28599 22042 ft 297 kts 235°
2026-05-05 16:54 40.16769 4.26421 21586 ft 296 kts 235°
2026-05-05 16:54 40.15554 4.24247 21134 ft 296 kts 235°
2026-05-05 16:54 40.14337 4.22075 20687 ft 296 kts 235°
2026-05-05 16:54 40.13118 4.19905 20244 ft 296 kts 235°
2026-05-05 16:55 40.11903 4.17741 19822 ft 296 kts 235°
2026-05-05 16:55 40.10686 4.15568 19402 ft 296 kts 235°
2026-05-05 16:55 40.09469 4.13398 19001 ft 296 kts 235°
2026-05-05 16:55 40.08251 4.11228 18593 ft 296 kts 235°
2026-05-05 16:56 40.07029 4.09058 18193 ft 297 kts 235°
2026-05-05 16:56 40.05808 4.06885 17781 ft 297 kts 235°
2026-05-05 16:56 40.04589 4.04717 17394 ft 295 kts 234°
2026-05-05 16:56 40.03376 4.02561 16993 ft 294 kts 234°
2026-05-05 16:57 40.02168 4.00414 16622 ft 293 kts 234°
2026-05-05 16:57 40.00979 3.98304 16272 ft 291 kts 234°
2026-05-05 16:57 39.99767 3.96155 15924 ft 289 kts 234°
2026-05-05 16:57 39.98575 3.94048 15583 ft 288 kts 234°
2026-05-05 16:58 39.97403 3.91975 15300 ft 287 kts 234°
2026-05-05 16:58 39.96219 3.89879 15053 ft 287 kts 234°
2026-05-05 16:58 39.95038 3.87793 14811 ft 286 kts 234°
2026-05-05 16:58 39.93860 3.85714 14568 ft 285 kts 234°
2026-05-05 16:59 39.92682 3.83638 14331 ft 284 kts 234°
2026-05-05 16:59 39.91512 3.81572 14090 ft 283 kts 234°
2026-05-05 16:59 39.90347 3.79516 13922 ft 282 kts 234°
2026-05-05 16:59 39.89182 3.77463 13888 ft 282 kts 234°
2026-05-05 17:00 39.88015 3.75407 13893 ft 283 kts 234°
2026-05-05 17:00 39.86831 3.73321 13899 ft 282 kts 234°
2026-05-05 17:00 39.85663 3.71263 13905 ft 283 kts 234°
2026-05-05 17:00 39.84492 3.69203 13895 ft 283 kts 234°
2026-05-05 17:01 39.83316 3.67133 13498 ft 289 kts 234°
2026-05-05 17:01 39.82094 3.64985 12682 ft 301 kts 234°
2026-05-05 17:01 39.80845 3.62792 11869 ft 311 kts 234°
2026-05-05 17:01 39.79524 3.60475 11110 ft 318 kts 233°
2026-05-05 17:02 39.78226 3.58201 10644 ft 315 kts 233°
2026-05-05 17:02 39.76929 3.55933 10224 ft 311 kts 233°
2026-05-05 17:02 39.75649 3.53699 9980 ft 303 kts 233°
2026-05-05 17:02 39.74408 3.51537 9733 ft 295 kts 233°
2026-05-05 17:03 39.73198 3.49427 9469 ft 288 kts 233°
2026-05-05 17:03 39.72017 3.47366 9212 ft 281 kts 234°
2026-05-05 17:03 39.70864 3.45349 8957 ft 275 kts 234°
2026-05-05 17:03 39.70011 3.43168 8692 ft 270 kts 253°
2026-05-05 17:04 39.69845 3.40758 8437 ft 268 kts 269°
2026-05-05 17:04 39.69932 3.38359 8188 ft 264 kts 269°
2026-05-05 17:04 39.70016 3.35992 7936 ft 260 kts 269°
2026-05-05 17:04 39.70095 3.33660 7691 ft 256 kts 269°
2026-05-05 17:05 39.70170 3.31369 7452 ft 253 kts 269°
2026-05-05 17:05 39.70244 3.29098 7207 ft 250 kts 269°
2026-05-05 17:05 39.70315 3.26857 6964 ft 247 kts 269°
2026-05-05 17:05 39.70384 3.24642 6717 ft 244 kts 269°
2026-05-05 17:06 39.70450 3.22454 6486 ft 241 kts 268°
2026-05-05 17:06 39.70515 3.20260 6246 ft 239 kts 268°
2026-05-05 17:06 39.70577 3.18115 5990 ft 237 kts 268°
2026-05-05 17:06 39.70638 3.16019 5739 ft 234 kts 268°
2026-05-05 17:07 39.70702 3.13895 5488 ft 231 kts 268°
2026-05-05 17:07 39.70764 3.11827 5240 ft 227 kts 268°
2026-05-05 17:07 39.70791 3.09800 5043 ft 220 kts 261°
2026-05-05 17:07 39.70433 3.07950 4989 ft 205 kts 244°
2026-05-05 17:08 39.69748 3.06393 4991 ft 199 kts 238°
2026-05-05 17:08 39.69027 3.04864 4990 ft 198 kts 238°
2026-05-05 17:08 39.68340 3.03396 4989 ft 183 kts 238°
2026-05-05 17:08 39.67684 3.01994 4849 ft 182 kts 238°
2026-05-05 17:09 39.67007 3.00548 4380 ft 192 kts 238°
2026-05-05 17:09 39.66305 2.99049 4028 ft 195 kts 238°
2026-05-05 17:09 39.65602 2.97550 3747 ft 194 kts 238°
2026-05-05 17:09 39.64902 2.96059 3484 ft 192 kts 238°
2026-05-05 17:10 39.64213 2.94590 3246 ft 187 kts 238°
2026-05-05 17:10 39.63550 2.93177 2998 ft 179 kts 238°
2026-05-05 17:10 39.62913 2.91820 2758 ft 174 kts 237°
2026-05-05 17:10 39.62299 2.90515 2540 ft 162 kts 238°
2026-05-05 17:11 39.61745 2.89334 2349 ft 146 kts 237°
2026-05-05 17:11 39.61221 2.88225 2070 ft 144 kts 238°
2026-05-05 17:11 39.60703 2.87136 1875 ft 136 kts 238°
2026-05-05 17:11 39.60212 2.86090 1752 ft 137 kts 237°
2026-05-05 17:12 39.59711 2.85024 1590 ft 141 kts 236°
2026-05-05 17:12 39.59198 2.83935 1381 ft 142 kts 236°
2026-05-05 17:12 39.58684 2.82818 1186 ft 146 kts 237°
2026-05-05 17:12 39.58151 2.81690 1020 ft 147 kts 238°
2026-05-05 17:13 39.57636 2.80543 816 ft 146 kts 237°
2026-05-05 17:13 39.57112 2.79426 604 ft 144 kts 237°
2026-05-05 17:13 39.56576 2.78319 338 ft 149 kts 237°
2026-05-05 17:13 39.56030 2.77156 237 ft 152 kts 238°
2026-05-05 17:14 39.55495 2.76056 62 ft 137 kts 237°
2026-05-05 17:14 39.55048 2.75110 30 ft 108 kts 237°
2026-05-05 17:14 39.54742 2.74471 30 ft 59 kts 238°
2026-05-05 17:14 39.54584 2.74120 30 ft 31 kts 246°
2026-05-05 17:15 39.54554 2.73888 30 ft 23 kts 264°
2026-05-05 17:15 39.54552 2.73749 30 ft 1 kts 273°
2026-05-05 17:15 39.54566 2.73703 30 ft 8 kts 315°
2026-05-05 17:15 39.54572 2.73696 30 ft 1 kts 319°
2026-05-05 17:16 39.54596 2.73708 30 ft 7 kts 57°
2026-05-05 17:16 39.54624 2.73775 30 ft 10 kts 60°
2026-05-05 17:16 39.54663 2.73858 30 ft 12 kts 58°
2026-05-05 17:16 39.54712 2.73960 30 ft 14 kts 58°
2026-05-05 17:17 39.54769 2.74079 30 ft 17 kts 58°
2026-05-05 17:17 39.54860 2.74101 30 ft 14 kts 328°
2026-05-05 17:17 39.54953 2.74029 30 ft 17 kts 329°
2026-05-05 17:17 39.55033 2.73967 30 ft 13 kts 328°
2026-05-05 17:18 39.55121 2.73897 30 ft 16 kts 328°
2026-05-05 17:18 39.55222 2.73816 30 ft 15 kts 328°
2026-05-05 17:18 39.55320 2.73739 30 ft 18 kts 331°
2026-05-05 17:18 39.55428 2.73655 30 ft 19 kts 328°
2026-05-05 17:19 39.55547 2.73560 30 ft 20 kts 328°
2026-05-05 17:19 39.55630 2.73483 30 ft 13 kts 295°
2026-05-05 17:19 39.55596 2.73376 30 ft 15 kts 239°
2026-05-05 17:19 39.55539 2.73253 30 ft 17 kts 238°
2026-05-05 17:20 39.55471 2.73110 30 ft 20 kts 238°
2026-05-05 17:20 39.55398 2.72958 30 ft 14 kts 238°
2026-05-05 17:20 39.55342 2.72839 30 ft 17 kts 239°
2026-05-05 17:20 39.55276 2.72699 30 ft 19 kts 238°
2026-05-05 17:21 39.55204 2.72545 30 ft 15 kts 238°
2026-05-05 17:21 39.55142 2.72476 30 ft 12 kts 185°
2026-05-05 17:21 39.55074 2.72529 30 ft 12 kts 144°
2026-05-05 17:22 39.55037 2.72642 30 ft 5 kts 141°
2026-05-05 17:22 39.55010 2.72662 30 ft 5 kts 150°
2026-05-05 17:22 39.54999 2.72671 30 ft 0 kts 147°